Weather History for Meriden, CT

Change the Weather History Date:

Saturday, May 3, 2014

  Actual Average (KHVN) Record (KHVN)
Temperature  
Mean Temperature 54 °F -  
Max Temperature 69 °F 62 °F 82 °F (2001)
Min Temperature 39 °F 45 °F 35 °F (2005)
Degree Days  
Heating Degree Days 12    
Growing Degree Days 4 (Base 50)    
Moisture  
Dew Point 41 °F    
Average Humidity 71    
Maximum Humidity 97    
Minimum Humidity 32    
Precipitation  
Precipitation 0.01 in - - ()
Sea Level Pressure  
Sea Level Pressure 29.80 in    
Wind  
Wind Speed 3 mph (South)    
Max Wind Speed 16 mph    
Max Gust Speed 24 mph    
Visibility 7 miles    
Events Rain    
Averages and records for this station are not official NWS values.
T = Trace of Precipitation, MM = Missing Value Source: NWS Daily Summary

Daily Weather History Graph

Daily Weather History Graph

Search for Another Location

Airport:

Trip Planner

Search our weather history database for the weather conditions in past years. The results will help you decide how hot, cold, wet, or windy it might be!

Date:

Astronomy

May. 03, 2014 Rise Set
Actual Time 5:45 AM EDT 7:51 PM EDT
Civil Twilight 5:15 AM EDT 8:21 PM EDT
Nautical Twilight 4:38 AM EDT 8:59 PM EDT
Astronomical Twilight 3:57 AM EDT 9:39 PM EDT
Moon 9:12 AM EDT (5/3) 11:55 PM EDT (5/3)
Length of Visible Light 15h 06m
Length of Day
14h 05m
Waxing Crescent, 19% of the Moon is Illuminated
May 3
Waxing Crescent
May 6
First Quarter
May 14
Full
May 21
Last Quarter
May 28
New

Hourly Weather History & Observations

Time (EDT) Temp. Dew Point Humidity Pressure Visibility Wind Dir Wind Speed Gust Speed Precip Events Conditions
12:53 AM 44.1 °F 39.9 °F 85% 29.84 in 10.0 mi Calm Calm - N/A   Clear
1:53 AM 43.0 °F 39.0 °F 86% 29.84 in 10.0 mi Calm Calm - N/A   Clear
2:53 AM 42.1 °F 39.0 °F 89% 29.84 in 10.0 mi Calm Calm - N/A   Clear
3:53 AM 41.0 °F 39.0 °F 93% 29.85 in 7.0 mi Calm Calm - N/A   Clear
4:53 AM 41.0 °F 37.9 °F 89% 29.85 in 8.0 mi Calm Calm - N/A   Clear
5:34 AM 39.9 °F 37.0 °F 89% 29.86 in 1.8 mi Calm Calm - N/A   Clear
5:43 AM 39.9 °F 37.9 °F 93% 29.87 in 3.0 mi Calm Calm - N/A   Clear
6:53 AM 43.0 °F 39.9 °F 89% 29.88 in 6.0 mi Calm Calm - N/A   Clear
7:53 AM 50.0 °F 42.1 °F 74% 29.88 in 10.0 mi Calm Calm - N/A   Clear
8:53 AM 57.0 °F 39.0 °F 51% 29.87 in 10.0 mi Calm Calm - N/A   Overcast
9:53 AM 62.1 °F 37.9 °F 41% 29.85 in 10.0 mi SSE 3.5 mph - N/A   Clear
10:53 AM 64.9 °F 37.0 °F 36% 29.83 in 10.0 mi South 9.2 mph - N/A   Scattered Clouds
11:53 AM 64.9 °F 37.9 °F 37% 29.81 in 10.0 mi South 15.0 mph 19.6 mph N/A   Mostly Cloudy
12:53 PM 68.0 °F 37.0 °F 32% 29.79 in 10.0 mi South 15.0 mph 21.9 mph N/A   Mostly Cloudy
1:53 PM 68.0 °F 37.0 °F 32% 29.77 in 10.0 mi South 16.1 mph 24.2 mph N/A   Mostly Cloudy
2:53 PM 66.9 °F 37.0 °F 33% 29.75 in 10.0 mi South 12.7 mph - N/A   Mostly Cloudy
4:53 PM 66.9 °F 37.9 °F 34% 29.73 in 10.0 mi South 12.7 mph 21.9 mph N/A   Mostly Cloudy
5:53 PM 66.0 °F 39.0 °F 37% 29.75 in 10.0 mi SW 8.1 mph 18.4 mph N/A   Overcast
6:53 PM 63.0 °F 37.9 °F 40% 29.75 in 10.0 mi South 8.1 mph - N/A   Overcast
7:53 PM 61.0 °F 37.0 °F 41% 29.75 in 10.0 mi Variable 5.8 mph - N/A   Mostly Cloudy
8:53 PM 54.0 °F 46.9 °F 77% 29.80 in 5.0 mi WSW 5.8 mph - 0.01 in Rain Light Rain
9:53 PM 52.0 °F 48.9 °F 89% 29.77 in 10.0 mi South 6.9 mph - 0.00 in   Mostly Cloudy
10:53 PM 50.0 °F 48.0 °F 93% 29.75 in 5.0 mi Calm Calm - N/A   Clear
11:05 PM 50.0 °F 48.0 °F 93% 29.75 in 1.8 mi Calm Calm - N/A   Clear
11:14 PM 48.9 °F 48.0 °F 97% 29.74 in 1.0 mi Calm Calm - N/A   Mist
11:22 PM 48.9 °F 46.9 °F 93% 29.74 in 0.8 mi Calm Calm - N/A   Mist
11:26 PM 48.9 °F 46.9 °F 93% 29.74 in 1.2 mi Calm Calm - N/A   Partly Cloudy
11:30 PM 48.9 °F 46.9 °F 93% 29.74 in 3.0 mi Calm Calm - N/A   Partly Cloudy
11:37 PM 48.0 °F 46.9 °F 96% 29.74 in 1.8 mi Calm Calm - N/A   Partly Cloudy
11:53 PM 48.0 °F 46.9 °F 96% 29.74 in 1.0 mi Calm Calm - N/A   Mostly Cloudy